Regional Weather Roundup
Issued by NWS Newport/Morehead, NC

Current Version | Previous Version | Text Only | Print | Product List | Glossary On
Versions: 1 2 3 4 5 6 7 8 9 10 11 12 13 14 15 16 17 18 19 20 21 22 23 24 25 26 27 28 29 30 31 32 33 34 35 36 37 38 39 40 41 42 43 44 45 46 47 48 49 50
000
ASUS42 KMHX 221825
RWRMHX
WEATHER ROUNDUP FOR EASTERN NORTH CAROLINA
NATIONAL WEATHER SERVICE NEWPORT/MOREHEAD CITY NC
100 PM EST WED FEB 22 2017

NOTE: "FAIR" INDICATES FEW OR NO CLOUDS BELOW 12,000 FEET
WITH NO SIGNIFICANT WEATHER AND/OR OBSTRUCTIONS TO VISIBILITY

NCZ015>017-031-032-045>047-102-103-221900-
NORTH COAST

CITY           SKY/WX    TMP DP  RH WIND       PRES   REMARKS
EDENTON        CLOUDY    71  48  43 SW3       29.99F
ELIZABETH CITY CLOUDY    68  50  52 SW7       29.99F
KITTY HAWK     NOT AVBL
MANTEO         MOSUNNY   68  48  49 S8        30.00F

$$

NCZ045>047-081-094-103-104-221900-
CENTRAL COAST

CITY           SKY/WX    TMP DP  RH WIND       PRES   REMARKS
FRISCO         MOSUNNY   71  51  49 SE9       30.00F

$$

NCZ095-097-098-100-101-221900-
SOUTHERN COAST

CITY           SKY/WX    TMP DP  RH WIND       PRES   REMARKS
BEAUFORT       SUNNY     71  53  52 S9        29.98F
CEDAR ISLAND   NOT AVBL
JACKSONVILLE   PTSUNNY   71  56  58 S16G22    29.97F
PINEY ISLAND   PTCLDY   N/A N/A N/A SE12G17   29.98F
WILMINGTON     SUNNY     71  55  56 SE14G20   29.97F


$$

NCZ011>013-027>030-043-044-078>080-089-090>093-098-221900-
COASTAL PLAIN

CITY           SKY/WX    TMP DP  RH WIND       PRES   REMARKS
AHOSKIE          N/A     66  52  60 CALM      29.98F
CLINTON        MOSUNNY   73  55  53 S7        29.97F
ELIZABETHTOWN  MOSUNNY   73  54  50 S7        29.95F
GOLDSBORO      MOSUNNY   73  50  43 S8        29.95F
GREENVILLE     MOSUNNY   72  46  40 CALM      29.99F
HAVELOCK       PTSUNNY   73  51  46 S10       29.98F
KENANSVILLE    NOT AVBL
KINSTON        MOSUNNY   72  45  37 S3        29.98F
NEW BERN       PTSUNNY   71  51  49 VRB6      29.98F
RICHLANDS      CLOUDY    71  54  54 S13       29.97F
ROCKY MOUNT    CLOUDY    70  51  51 SW5       29.97F
WASHINGTON     MOSUNNY   71  47  43 SE6       29.97F
WHITEVILLE     MOSUNNY   74  50  43 SE10      29.94F

$$

AMZ130-135-150-152-154-156-158-170-250-252-270-ANZ085-086-088-633-658-670-221900-
MARINE OBSERVATIONS

STATION/POSITION TIME  TEMP    WIND        PRES    WAVE   SWELL
                       AIR SEA DIR/SP/G            HT/PER HT/PER
                 (UTC) (F)     (DEG/KT/KT) (MB)    (FT/S) (FT/S)
CHESAPEAKE LIGHT NOT AVBL
64 E VA BEACH    1750   59 55  190/  4/  6 1016.1    4/ 9   3/ 9
DUCK             1748   60 48  120/  2/  3 1015.6
2 E DUCK         1700      50                N/A     3/ 9   2/11
OREGON INLET     1800   63 52   70/  6/  7 1015.7
13E OREGON INLT  NOT AVBL
HATTERAS CG      1800   67 59  150/  7/ 10 1015.2
DIAMOND BUOY     1750   67 75  140/ 10/ 12 1015.8    3/ 8   3/ 8
CAPE LOOKOUT     1800   65     140/  7/  7 1015.0
BEAUFORT LAB     1800   66 53  190/  6/  7 1014.4
30 SE NEW RVR IN 1808   68     150/ 14/ 17 1015.2
30 SE NEW RVR IN 1743      69                N/A     4/ 7
27 SE WRIGHTSVLE 1808   67 64  150/  8/ 12 1014.1
5 SE WRIGHTSVLE  1808   61 58   70/  4/  8 1014.7
225 S CAPE HAT   1750   65 70  100/ 14/ 19 1016.0    5/ 9   3/ 9
41 SE CHARLESTON 1750   68 70   90/ 21/ 23 1012.3    5/ 6   2/ 8

$$



USA.gov is the U.S. government's official web portal to all federal, state and local government web resources and services.